PEGASUS DEB, 39927

Orbit data source: Space-Track

PEGASUS DEB, 39927 is space debris in LEO originally from a launch on Thu, 19 May 1994 UTC launched from the Air Force Western Test Range (AFWTR). Debris objects in space refer to the collection of defunct objects orbiting the Earth. Examples of debris include non-operational satellites, rocket bodies, and fragments generated from explosions, collisions, or faulty payload assembly.

Loading next visibility...
Identifier
39927, 1994-029AGA
Orbit
LEO
Country
Flag of USUS
Related business
Manufacturer
Unknown
Mission
Spacecraft
Bus & Motor
Unknown
Mass
Unknown
Launch date (UTC)
1994-05-19 (32 years ago)
Launch vehicle
Unknown
Launch site
Air Force Western Test Range (AFWTR)
Object type
Payload
Rocket body
Debris
Shape & HBR
Unknown shape, 0.1 m
Radar Cross Section
Small (<0.1 m²)

Expand to show TLE details & history
Last TLE update: 12 hours ago

TLE from 12 hours ago
0 PEGASUS DEB
1 39927U 94029AGA 26062.42065430  .00090395  00000-0  14386-2 0  9994
2 39927  81.7973 308.9406 0016825 189.2982 170.7960 15.52784685640762
Epoch: 2026-03-03T10:05Z
TLE epoch observation values (Epoch: 2026-03-03T10:05:44.531Z)
Latitude
-0.00001°
Longitude
-3.69491°
Altitude
422.985 km
Speed
7.651 km/s
True Right ascension
20h 35m 45s
True Declination
0° 00' 00"
Sunlit
Object was in daylight at epoch
Visualization orbit readout
Latitude
Unknown
Longitude
Unknown
Altitude
Unknown
Speed
Unknown
Apparent Right ascension
Unknown
Apparent Declination
Unknown
Sunlit
N/A
Visualization observer readout
Local Sidereal Time
01:59:26
Azimuth
Unknown
Elevation
Unknown
Doppler factor
Unknown
Orbital elements
Apogee altitude
416.972 km
Perigee altitude
394.145 km
Semi-major axis
6,783.696 km
Eccentricity
0.00168
Inclination
81.7973°
RAAN
308.9406°
Arg. of periapsis
189.2982°
True anomaly
170.82677°
Mean anomaly
170.796°
Eccentric anomaly
170.81139°
Mean motion
3.88458 °/min
Orbital period
92.67 mins
BSTAR
0.0014386
Loading maneuver chart data...
Computing Atmospheric mass density...
Loading historical data...
Loading historical data...
Loading historical data...
Loading historical data...
Loading historical data...
Loading historical data...
Loading historical data...

Documentation

Showing up to 5 results
|